    P/2005 K3 (McNaught)

Epoch 2005 Aug. 18.0 TT = JDT 2453600.5  

T 2005 Aug. 11.40958 TT                                 Nakano

q   1.5091357            (2000.0)            P               Q

n   0.13882291     Peri.   15.59100     +0.98983679     -0.13712407

a   3.6939864      Node   352.00087     +0.08313783     +0.77298421

e   0.5914615      Incl.   15.71211     +0.11537434     +0.61942909

P   7.10 (+/- 0.02 day)

From 322 observations 2005 May 20-Oct. 22, mean residual 0".51.



NAKANO

         **** Don't distribute anyone except personal use only ****

                (C) Copyright 2005 OAA/ComputingSection

write mail from CFAD0::NAKANO on 2005-11-03 23:39:18(JST).

 





    C/2005 K1 (Skiff)

Epoch 2005 Nov. 6.0 TT = JDT 2453680.5  

T 2005 Nov. 21.22019 TT                                 Nakano

q   3.6929023            (2000.0)            P               Q

z  -0.0009078      Peri.  134.94422     +0.05415575     +0.34258650

 +/-0.0000052      Node   106.30423     -0.93588123     -0.31006409

e   1.0033525      Incl.   77.74797     +0.34812854     -0.88684539

From 539 observations 2005 May 16-Oct. 23, mean residual 0".59.

   (1/a)org.= -0.000022, (1/a)fut.= -0.000109 (+/-0.000005), Q= 6.

NAKANO

         **** Don't distribute anyone except personal use only ****

                (C) Copyright 2005 OAA/ComputingSection

write mail from CFAD0::NAKANO on 2005-11-03 23:39:18(JST).

 



    C/2005 K1 (Skiff)

Epoch 2005 Nov. 6.0 TT = JDT 2453680.5  

T 2005 Nov. 21.21928 TT                                 Nakano

q   3.6929309            (2000.0)            P               Q

z  -0.0009218      Peri.  134.94409     +0.05414918     +0.34257638

 +/-0.0000093      Node   106.30355     -0.93588067     -0.31007031

e   1.0034040      Incl.   77.74820     +0.34813107     -0.88684713

From 463 observations 2005 May 16-Sept. 9, mean residual 0".60.

   (1/a)org.= -0.000036, (1/a)fut.= -0.000123 (+/-0.000009), Q= 6.



NAKANO

         **** Don't distribute anyone except personal use only ****

                (C) Copyright 2005 OAA/ComputingSection

write mail from CFAD0::NAKANO on 2005-09-12 05:45:24(JST).

 

    C/2005 K1 (Skiff)                                                     

Epoch 2005 Nov. 6.0 TT = JDT 2453680.5  

T 2005 Nov. 21.21421 TT                                 Nakano

q   3.6930154            (2000.0)            P               Q

z  -0.0009362      Peri.  134.94267     +0.05412935     +0.34255806

 +/-0.0000204      Node   106.30224     -0.93587317     -0.31010170

e   1.0034575      Incl.   77.74864     +0.34815432     -0.88684323

From 355 observations 2005 May 16-Aug. 7, mean residual 0".62.

   (1/a)org.= -0.000051, (1/a)fut.= -0.000137 (+/-0.000020), Q= 5.



NAKANO

         **** Don't distribute anyone except personal use only ****

                (C) Copyright 2005 OAA/ComputingSection

write mail from CFAD0::NAKANO on 2005-08-10 06:05:41(JST).

 

    C/2005 K1 (Skiff)                                                     

T 2005 Nov. 20.77488 TT                                 Nakano

q   3.6939935            (2000.0)            P               Q

                   Peri.  134.83187     +0.05379148     +0.34320655

                   Node   106.33896     -0.93526455     -0.31168501

e   1.0            Incl.   77.73692     +0.34983810     -0.88603708

From 211 observations 2005 May 16-June 26.



NAKANO

         **** Don't distribute anyone except personal use only ****

                (C) Copyright 2005 OAA/ComputingSection

write mail from CFAD0::NAKANO on 2005-07-03 02:21:28(JST).



    C/2005 K1 (Skiff)                                                     

T 2005 Nov. 20.64571 TT                                 Nakano

q   3.6991881            (2000.0)            P               Q

                   Peri.  134.74560     +0.05300343     +0.34265857

                   Node   106.30091     -0.93478979     -0.31333841

e   1.0            Incl.   77.75461     +0.35122455     -0.88566593

From 119 observations 2005 May 16-June 3.



NAKANO

         **** Don't distribute anyone except personal use only ****

                (C) Copyright 2005 OAA/ComputingSection

write mail from CFAD0::NAKANO on 2005-06-05 05:59:11(JST).

 



◎C/2005 K1の軌道と予報位置です



  ASOのシェロードから5月18日の観測が報告されました.氏のCCD全光度は

16.6等でした.



    C/2005 K1 (Skiff)                                                     

T 2005 Nov. 19.12802 TT                                 Nakano

q   3.8146073            (2000.0)            P               Q

                   Peri.  133.07386     +0.03834397     +0.33089046

                   Node   105.53896     -0.92494079     -0.34534723

e   1.0            Incl.   78.14241     +0.37817229     -0.87820658

From 13 observations 2005 May 16-18.

 

Date/        TT  R.A.(2000) Decl.     Delta   r     Daily motion  Mag.  Moon Age

              h    h  m       。  ,                      ,  / PA 。  m1      。

2005 May  15 18  17 55.08  +65 16.0   4.003  4.152     8.6 / 267  16.6   86  .44

          16 18  17 53.71  +65 15.5   3.998  4.148     8.8 / 266  16.6   86  .54

          17 18  17 52.32  +65 14.8   3.993  4.145     8.9 / 264  16.6   86  .63

          18 18  17 50.90  +65 13.9   3.987  4.141     9.1 / 262  16.6   87  .72

          19 18  17 49.46  +65 12.7   3.982  4.138     9.3 / 261  16.6   87  .81

          20 18  17 48.00  +65 11.2   3.977  4.135     9.5 / 259  16.6   88  .88

          21 18  17 46.53  +65 09.4   3.972  4.131     9.6 / 258  16.6   89  .94

          22 18  17 45.04  +65 07.3   3.967  4.128     9.8 / 256  16.6   90  .98

          23 18  17 43.53  +65 05.0   3.962  4.125    10.0 / 255  16.6   91 1.00

          24 18  17 42.00  +65 02.4   3.957  4.122    10.2 / 254  16.6   92  .99

          25 18  17 40.47  +64 59.5   3.953  4.118    10.3 / 252  16.6   93  .95

          26 18  17 38.92  +64 56.3   3.948  4.115    10.5 / 251  16.6   94  .88

          27 18  17 37.36  +64 52.8   3.943  4.112    10.7 / 249  16.6   95  .80

          28 18  17 35.79  +64 49.0   3.938  4.109    10.9 / 248  16.6   95  .70

          29 18  17 34.21  +64 44.8   3.933  4.105    11.1 / 247  16.6   96  .58

          30 18  17 32.63  +64 40.4   3.928  4.102    11.2 / 245  16.6   96  .47

          31 18  17 31.05  +64 35.7   3.924  4.099    11.4 / 244  16.6   95  .36

     June  1 18  17 29.46  +64 30.6   3.919  4.096    11.6 / 243  16.6   95  .26

           2 18  17 27.86  +64 25.2   3.914  4.093    11.8 / 241  16.6   94  .17

           3 18  17 26.27  +64 19.5   3.910  4.090    12.0 / 240  16.5   93  .10

           4 18  17 24.68  +64 13.5   3.905  4.086    12.2 / 239  16.5   92  .05

           5 18  17 23.09  +64 07.1   3.901  4.083    12.4 / 237  16.5   91  .01

           6 18  17 21.51  +64 00.4   3.896  4.080    12.5 / 236  16.5   89  .00

           7 18  17 19.93  +63 53.4   3.892  4.077    12.7 / 235  16.5   88  .01

           8 18  17 18.36  +63 46.1   3.887  4.074    12.9 / 234  16.5   87  .03

           9 18  17 16.80  +63 38.4   3.883  4.071    13.1 / 232  16.5   86  .08

          10 18  17 15.25  +63 30.4   3.879  4.068    13.3 / 231  16.5   85  .13

          11 18  17 13.71  +63 22.0   3.875  4.065    13.5 / 230  16.5   84  .20

          12 18  17 12.19  +63 13.4   3.871  4.062    13.6 / 229  16.5   83  .29

          13 18  17 10.67  +63 04.4   3.867  4.059    13.8 / 228  16.5   83  .37

          14 18  17 09.18  +62 55.0   3.862  4.056    14.0 / 227  16.5   82  .47

          15 18  17 07.70  +62 45.4   3.859  4.053    14.2 / 225  16.5   82  .57

NAKANO

         **** Don't distribute anyone except personal use only ****

                (C) Copyright 2005 OAA/ComputingSection

write mail from CFAD0::NAKANO on 2005-05-19 04:41:09(JST).

 



戻ります。